Weather History for Frenchville, ME

Change the Weather History Date:

Tuesday, November 22, 2011

  Actual Average Record
Temperature  
Mean Temperature 17 °F 27 °F  
Max Temperature 27 °F 33 °F 46 °F (1999)
Min Temperature 7 °F 21 °F 7 °F (2011)
Degree Days  
Heating Degree Days 48    
Month to date heating degree days 621  
Since 1 July heating degree days 1637  
Cooling Degree Days 0    
Month to date cooling degree days 0  
Year to date cooling degree days 87  
Moisture  
Dew Point 8 °F    
Average Humidity 66    
Maximum Humidity 88    
Minimum Humidity 37    
Precipitation  
Precipitation 0.00 in 0.11 in 1.34 in (2005)
Month to date precipitation 1.52 2.14  
Year to date precipitation 38.82 30.26  
Sea Level Pressure  
Sea Level Pressure 30.36 in    
Wind  
Wind Speed 4 mph (WNW)    
Max Wind Speed 12 mph    
Max Gust Speed 15 mph    
Visibility 10 miles    
Events      
T = Trace of Precipitation, MM = Missing Value Source: NWS Daily Summary

Daily Weather History Graph

Daily Weather History Graph

Search for Another Location

Airport:

Trip Planner

Search our weather history database for the weather conditions in past years. The results will help you decide how hot, cold, wet, or windy it might be!

Date:

Astronomy

Nov. 22, 2011 Rise Set
Actual Time 6:47 AM EST 3:51 PM EST
Civil Twilight 6:13 AM EST 4:25 PM EST
Nautical Twilight 5:35 AM EST 5:02 PM EST
Astronomical Twilight 4:58 AM EST 5:39 PM EST
Moon 3:24 AM EST (11/22) 1:55 PM EST (11/22)
Length of Visible Light 10h 12m
Length of Day
9h 04m
Waning Crescent, 9% of the Moon is Illuminated
Nov 22
Waning Crescent
Nov 25
New
Dec 2
First Quarter
Dec 10
Full
Dec 17
Last Quarter

Hourly Weather History & Observations

Time (EST) Temp. Windchill Dew Point Humidity Pressure Visibility Wind Dir Wind Speed Gust Speed Precip Events Conditions
12:53 AM 10.0 °F -0.9 °F 5.0 °F 80% 30.37 in 10.0 mi West 6.9 mph - N/A   Clear
1:53 AM 10.9 °F 4.7 °F 5.0 °F 77% 30.38 in 10.0 mi West 3.5 mph - N/A   Clear
2:53 AM 10.0 °F 3.6 °F 5.0 °F 80% 30.37 in 10.0 mi WNW 3.5 mph - N/A   Clear
3:53 AM 10.9 °F 4.7 °F 5.0 °F 77% 30.37 in 10.0 mi West 3.5 mph - N/A   Clear
4:53 AM 8.1 °F - 5.0 °F 87% 30.38 in 10.0 mi Calm Calm - N/A   Clear
5:53 AM 9.0 °F - 6.1 °F 88% 30.39 in 10.0 mi Calm Calm - N/A   Clear
6:53 AM 10.0 °F - 6.1 °F 84% 30.39 in 8.0 mi Calm Calm - N/A   Clear
7:53 AM 10.9 °F - 7.0 °F 84% 30.40 in 9.0 mi Calm Calm - N/A   Clear
9:53 AM 19.0 °F - 12.9 °F 77% 30.39 in 9.0 mi Calm Calm - N/A   Clear
10:53 AM 21.9 °F 13.4 °F 12.9 °F 68% 30.37 in 9.0 mi WSW 6.9 mph - N/A   Clear
11:53 AM 24.1 °F 18.2 °F 10.0 °F 55% 30.35 in 10.0 mi West 4.6 mph - N/A   Clear
12:53 PM 26.1 °F 16.8 °F 7.0 °F 44% 30.33 in 10.0 mi WNW 9.2 mph - N/A   Clear
1:53 PM 27.0 °F 18.0 °F 3.9 °F 37% 30.31 in 10.0 mi West 9.2 mph - N/A   Clear
2:53 PM 26.1 °F 19.4 °F 7.0 °F 44% 30.32 in 10.0 mi West 5.8 mph - N/A   Clear
3:53 PM 25.0 °F 20.7 °F 8.1 °F 49% 30.34 in 10.0 mi SW 3.5 mph - N/A   Clear
4:53 PM 25.0 °F 19.3 °F 7.0 °F 46% 30.35 in 10.0 mi West 4.6 mph - N/A   Clear
5:53 PM 24.1 °F - 7.0 °F 48% 30.37 in 10.0 mi Calm Calm - N/A   Clear
6:53 PM 21.9 °F 15.7 °F 8.1 °F 55% 30.38 in 10.0 mi NW 4.6 mph - N/A   Clear
7:53 PM 21.2 °F 13.6 °F 8.6 °F 58% 30.32 in 10.0 mi North 5.8 mph - N/A   Scattered Clouds
8:53 PM 19.0 °F 12.3 °F 10.0 °F 68% 30.35 in 10.0 mi NNW 4.6 mph - N/A   Clear
9:53 PM 18.0 °F 11.1 °F 12.0 °F 78% 30.33 in 9.0 mi North 4.6 mph - N/A   Clear
10:53 PM 19.0 °F 12.3 °F 12.0 °F 74% 30.34 in 10.0 mi NNW 4.6 mph - N/A   Clear
11:53 PM 19.0 °F 13.9 °F 10.9 °F 71% 30.34 in 10.0 mi North 3.5 mph - N/A   Clear